Weather History for West Palm Beach, FL

Change the Weather History Date:

Saturday, May 11, 2013

  Actual Average Record
Temperature  
Mean Temperature 79 °F 78 °F  
Max Temperature 87 °F 85 °F 95 °F (2011)
Min Temperature 71 °F 70 °F 50 °F (1923)
Degree Days  
Heating Degree Days 0 0  
Month to date heating degree days 0 0  
Since 1 July heating degree days 164 233  
Cooling Degree Days 14 13  
Month to date cooling degree days 105 129  
Year to date cooling degree days 932 824  
Growing Degree Days 29 (Base 50)    
Moisture  
Dew Point 72 °F    
Average Humidity 78    
Maximum Humidity 94    
Minimum Humidity 61    
Precipitation  
Precipitation 1.02 in 0.11 in 2.31 in (1958)
Month to date precipitation 4.83 1.01  
Year to date precipitation 14.11 15.21  
Snow  
Snow 0.00 in - - ()
Month to date snowfall 0.0  
Since 1 July snowfall 0.0  
Snow Depth 0.00 in    
Sea Level Pressure  
Sea Level Pressure 30.04 in    
Wind  
Wind Speed 9 mph (South)    
Max Wind Speed 23 mph    
Max Gust Speed 28 mph    
Visibility 9 miles    
Events Rain , Thunderstorm    
T = Trace of Precipitation, MM = Missing Value Source: NWS Daily Summary

Daily Weather History Graph

Daily Weather History Graph

Search for Another Location

Airport:

Trip Planner

Search our weather history database for the weather conditions in past years. The results will help you decide how hot, cold, wet, or windy it might be!

Date:

Astronomy

May. 11, 2013 Rise Set
Actual Time 6:35 AM EDT 7:58 PM EDT
Civil Twilight 6:10 AM EDT 8:23 PM EDT
Nautical Twilight 5:40 AM EDT 8:53 PM EDT
Astronomical Twilight 5:09 AM EDT 9:24 PM EDT
Moon 7:44 AM EDT (5/11) 9:34 PM EDT (5/11)
Length of Visible Light 14h 13m
Length of Day
13h 23m
Waxing Crescent, 3% of the Moon is Illuminated
May 11
Waxing Crescent
May 18
First Quarter
May 25
Full
May 31
Last Quarter
Jun 8
New

Hourly Weather History & Observations

Time (EDT) Temp. Heat Index Dew Point Humidity Pressure Visibility Wind Dir Wind Speed Gust Speed Precip Events Conditions
12:53 AM 78.1 °F - 73.0 °F 84% 30.07 in 10.0 mi South 3.5 mph - N/A   Partly Cloudy
1:53 AM 77.0 °F - 73.0 °F 88% 30.06 in 10.0 mi SW 4.6 mph - N/A   Partly Cloudy
2:53 AM 75.9 °F - 73.0 °F 91% 30.04 in 10.0 mi West 3.5 mph - N/A   Partly Cloudy
3:53 AM 75.0 °F - 72.0 °F 90% 30.03 in 10.0 mi SE 3.5 mph - N/A   Partly Cloudy
4:53 AM 75.0 °F - 73.0 °F 94% 30.04 in 10.0 mi Calm Calm - N/A   Partly Cloudy
5:53 AM 73.0 °F - 71.1 °F 93% 30.04 in 10.0 mi Calm Calm - N/A   Partly Cloudy
6:53 AM 75.0 °F - 73.0 °F 94% 30.03 in 10.0 mi Calm Calm - N/A   Partly Cloudy
7:53 AM 77.0 °F - 73.9 °F 90% 30.06 in 10.0 mi SSW 4.6 mph - N/A   Partly Cloudy
8:53 AM 80.1 °F 84.5 °F 73.9 °F 81% 30.06 in 10.0 mi SSW 8.1 mph - N/A   Scattered Clouds
9:02 AM 80.6 °F 85.4 °F 73.4 °F 79% 30.06 in 10.0 mi South 8.1 mph - N/A   Mostly Cloudy
9:53 AM 82.0 °F 86.7 °F 72.0 °F 71% 30.06 in 10.0 mi South 11.5 mph - N/A   Mostly Cloudy
10:26 AM 82.4 °F 87.2 °F 71.6 °F 70% 30.06 in 10.0 mi South 11.5 mph - N/A   Mostly Cloudy
10:53 AM 84.0 °F 88.4 °F 70.0 °F 63% 30.06 in 10.0 mi South 12.7 mph - N/A   Scattered Clouds
11:53 AM 84.9 °F 90.7 °F 72.0 °F 65% 30.05 in 10.0 mi SSE 15.0 mph 20.7 mph N/A   Scattered Clouds
12:53 PM 84.9 °F 90.7 °F 72.0 °F 65% 30.04 in 10.0 mi SE 20.7 mph - N/A   Mostly Cloudy
1:48 PM 86.0 °F 91.8 °F 71.6 °F 62% 30.03 in 10.0 mi SSE 16.1 mph 26.5 mph N/A Thunderstorm Thunderstorm
1:53 PM 86.0 °F 92.2 °F 72.0 °F 63% 30.03 in 10.0 mi SSE 19.6 mph 26.5 mph N/A Thunderstorm Thunderstorm
2:17 PM 78.8 °F - 68.0 °F 69% 30.03 in 7.0 mi SW 10.4 mph 23.0 mph N/A Thunderstorm Thunderstorm
2:53 PM 81.0 °F 86.7 °F 75.0 °F 82% 30.03 in 7.0 mi SSE 15.0 mph - 0.32 in Thunderstorm Thunderstorm
3:24 PM 82.4 °F 88.2 °F 73.4 °F 74% 30.01 in 10.0 mi SSE 13.8 mph - N/A   Mostly Cloudy
3:53 PM 82.9 °F 89.4 °F 73.9 °F 74% 30.00 in 10.0 mi SSE 16.1 mph - 0.00 in   Scattered Clouds
4:53 PM 82.9 °F 88.8 °F 73.0 °F 72% 29.99 in 10.0 mi SSE 19.6 mph 25.3 mph N/A   Mostly Cloudy
5:53 PM 81.0 °F 84.9 °F 71.1 °F 72% 29.98 in 10.0 mi SSE 16.1 mph 24.2 mph N/A   Mostly Cloudy
6:53 PM 80.1 °F 83.6 °F 71.1 °F 74% 30.00 in 10.0 mi South 10.4 mph 18.4 mph N/A   Mostly Cloudy
7:41 PM 80.6 °F 84.6 °F 71.6 °F 74% 30.02 in 4.0 mi SSW 9.2 mph - 0.00 in Rain , Thunderstorm Light Thunderstorms and Rain
7:53 PM 78.1 °F - 73.0 °F 84% 30.02 in 10.0 mi South 5.8 mph - 0.05 in Rain , Thunderstorm Light Thunderstorms and Rain
8:15 PM 73.4 °F - 69.8 °F 88% 30.04 in 2.0 mi Variable 6.9 mph - 0.04 in Rain , Thunderstorm Heavy Thunderstorms and Rain
8:29 PM 73.4 °F - 69.8 °F 88% 30.04 in 8.0 mi Calm Calm - 0.40 in Rain , Thunderstorm Light Thunderstorms and Rain
8:46 PM 73.4 °F - 69.8 °F 88% 30.04 in 10.0 mi SW 6.9 mph - 0.40 in   Mostly Cloudy
8:53 PM 73.0 °F - 70.0 °F 90% 30.04 in 10.0 mi SSW 8.1 mph - 0.40 in   Mostly Cloudy
9:47 PM 75.2 °F - 71.6 °F 89% 30.07 in 10.0 mi NW 13.8 mph 18.4 mph 0.00 in Thunderstorm Thunderstorm
9:53 PM 75.0 °F - 70.0 °F 84% 30.07 in 10.0 mi NW 16.1 mph 24.2 mph 0.00 in Thunderstorm Thunderstorm
9:57 PM 75.2 °F - 69.8 °F 83% 30.06 in 10.0 mi NW 18.4 mph 26.5 mph 0.00 in Rain , Thunderstorm Light Thunderstorms and Rain
10:28 PM 71.6 °F - 69.8 °F 94% 30.07 in 10.0 mi North 11.5 mph - 0.06 in Rain Light Rain
10:53 PM 71.1 °F - 69.1 °F 93% 30.07 in 7.0 mi North 9.2 mph 19.6 mph 0.24 in Rain Light Rain
11:53 PM 72.0 °F - 70.0 °F 93% 30.06 in 10.0 mi SSW 4.6 mph - 0.01 in   Scattered Clouds